| time (UTC) | temp C | wind direction | speed KPH | gust KPH | rain 1hr cm | rain 24hr cm | rain mn cm | humidity % | barometer mb |
| 20260505031526 | 15 | 198 | 11.3 | 0.0 | 0.00 | 0.00 | 0.00 | 49 | 1007.8 |
| 20260505030026 | 15 | 207 | 8.0 | 0.0 | 0.00 | 0.00 | 0.00 | 49 | 1007.8 |
| 20260505024548 | 15 | 202 | 9.7 | 0.0 | 0.00 | 0.00 | 0.00 | 48 | 1007.8 |
| 20260505023034 | 16 | 178 | 12.9 | 0.0 | 0.00 | 0.00 | 0.00 | 47 | 1007.8 |
| 20260505021542 | 15 | 219 | 9.7 | 0.0 | 0.00 | 0.00 | 0.00 | 46 | 1007.9 |
| 20260505020023 | 15 | 184 | 6.4 | 0.0 | 0.00 | 0.00 | 0.00 | 46 | 1008.1 |
| 20260505014527 | 15 | 198 | 6.4 | 0.0 | 0.00 | 0.00 | 0.00 | 46 | 1008.1 |
| 20260505013025 | 15 | 205 | 3.2 | 0.0 | 0.00 | 0.00 | 0.00 | 47 | 1008.0 |
| 20260505011528 | 15 | 190 | 1.6 | 0.0 | 0.00 | 0.00 | 0.00 | 46 | 1007.8 |
| 20260505010023 | 15 | 212 | 3.2 | 0.0 | 0.00 | 0.00 | 0.00 | 45 | 1007.7 |
| 20260505004537 | 15 | 218 | 1.6 | 0.0 | 0.00 | 0.00 | 0.00 | 46 | 1007.7 |
| 20260505003026 | 16 | 219 | 1.6 | 0.0 | 0.00 | 0.00 | 0.00 | 45 | 1007.6 |
| 20260505001526 | 16 | 223 | 1.6 | 0.0 | 0.00 | 0.00 | 0.00 | 44 | 1007.3 |
| 20260505000026 | 16 | 223 | 1.6 | 0.0 | 0.00 | 0.00 | 0.00 | 43 | 1007.3 |
| 20260504234523 | 17 | 224 | 3.2 | 0.0 | 0.00 | 0.00 | 0.00 | 42 | 1007.2 |
| 20260504233022 | 17 | 225 | 4.8 | 0.0 | 0.00 | 0.00 | 0.00 | 41 | 1006.9 |
| 20260504231521 | 17 | 216 | 6.4 | 0.0 | 0.00 | 0.00 | 0.00 | 41 | 1006.8 |
| 20260504230022 | 18 | 175 | 9.7 | 0.0 | 0.00 | 0.00 | 0.00 | 40 | 1006.7 |
| 20260504224523 | 18 | 206 | 9.7 | 0.0 | 0.00 | 0.00 | 0.00 | 38 | 1006.7 |
| 20260504223027 | 18 | 212 | 8.0 | 0.0 | 0.00 | 0.00 | 0.00 | 38 | 1006.8 |
| 20260504221525 | 18 | 217 | 11.3 | 0.0 | 0.00 | 0.00 | 0.00 | 38 | 1006.8 |
| 20260504220024 | 18 | 213 | 11.3 | 0.0 | 0.00 | 0.00 | 0.00 | 38 | 1006.7 |
| 20260504214518 | 19 | 178 | 6.4 | 0.0 | 0.00 | 0.00 | 0.00 | 38 | 1006.7 |
| 20260504213021 | 19 | 222 | 8.0 | 0.0 | 0.00 | 0.00 | 0.00 | 38 | 1006.9 |
| 20260504211519 | 18 | 228 | 9.7 | 0.0 | 0.00 | 0.00 | 0.00 | 38 | 1007.0 |
| 20260504210016 | 18 | 228 | 11.3 | 0.0 | 0.00 | 0.00 | 0.00 | 38 | 1007.0 |
| 20260504204518 | 18 | 243 | 11.3 | 0.0 | 0.00 | 0.00 | 0.00 | 38 | 1007.1 |
| 20260504203017 | 19 | 186 | 9.7 | 0.0 | 0.00 | 0.00 | 0.00 | 38 | 1007.1 |
| 20260504201514 | 18 | 186 | 9.7 | 0.0 | 0.00 | 0.00 | 0.00 | 40 | 1007.2 |
| 20260504200017 | 18 | 200 | 6.4 | 0.0 | 0.00 | 0.00 | 0.00 | 39 | 1007.6 |
| 20260504194513 | 18 | 195 | 8.0 | 0.0 | 0.00 | 0.00 | 0.00 | 39 | 1007.8 |
| 20260504193013 | 17 | 240 | 8.0 | 0.0 | 0.00 | 0.00 | 0.00 | 40 | 1008.0 |
| 20260504191514 | 18 | 280 | 9.7 | 0.0 | 0.00 | 0.00 | 0.00 | 40 | 1008.3 |
| 20260504190008 | 17 | 248 | 6.4 | 0.0 | 0.00 | 0.00 | 0.00 | 41 | 1008.3 |
| 20260504184506 | 17 | 292 | 11.3 | 0.0 | 0.00 | 0.00 | 0.00 | 42 | 1008.5 |
| 20260504183005 | 17 | 219 | 12.9 | 0.0 | 0.00 | 0.00 | 0.00 | 41 | 1008.6 |
| 20260504181505 | 17 | 229 | 14.5 | 0.0 | 0.00 | 0.00 | 0.00 | 41 | 1008.5 |
| 20260504180003 | 17 | 237 | 11.3 | 0.0 | 0.00 | 0.00 | 0.00 | 41 | 1008.4 |
| 20260504174507 | 16 | 244 | 12.9 | 0.0 | 0.00 | 0.00 | 0.00 | 43 | 1008.6 |
| 20260504173008 | 16 | 220 | 9.7 | 0.0 | 0.00 | 0.00 | 0.00 | 43 | 1008.7 |
| 20260504171505 | 16 | 225 | 14.5 | 0.0 | 0.00 | 0.00 | 0.00 | 42 | 1008.8 |
| 20260504081544 | 6 | 203 | 6.4 | 0.0 | 0.00 | 0.00 | 0.00 | 59 | 1011.7 |
| 20260504050019 | 6 | 220 | 1.6 | 0.0 | 0.00 | 0.00 | 0.00 | 58 | 1011.7 |
| 20260504044520 | 6 | 220 | 1.6 | 0.0 | 0.00 | 0.00 | 0.00 | 58 | 1012.0 |
| 20260504043031 | 6 | 220 | 1.6 | 0.0 | 0.00 | 0.00 | 0.00 | 59 | 1012.1 |
| 20260504041511 | 6 | 214 | 0.0 | 0.0 | 0.00 | 0.00 | 0.00 | 59 | 1012.4 |
| 20260504040012 | 6 | 214 | 0.0 | 0.0 | 0.00 | 0.00 | 0.00 | 59 | 1012.4 |
| 20260504034507 | 5 | 217 | 1.6 | 0.0 | 0.00 | 0.00 | 0.00 | 59 | 1012.3 |
| 20260504033004 | 5 | 238 | 1.6 | 0.0 | 0.00 | 0.00 | 0.00 | 60 | 1012.4 |